Regional Weather Roundup
Issued by NWS Sterling, VA

Home | Current Version | Previous Version | Text Only | Print | Product List | Glossary Off
Versions: 1 2 3 4 5 6 7 8 9 10 11 12 13 14 15 16 17 18 19 20 21 22 23 24 25 26 27 28 29 30 31 32 33 34 35 36 37 38 39 40 41 42 43 44 45 46 47 48 49 50

465
ASUS41 KLWX 192311
RWRLWX

REGIONAL WEATHER ROUNDUP
NATIONAL WEATHER SERVICE BALTIMORE MD/WASHINGTON DC
700 PM EDT TUE SEP 19 2017

Note: "FAIR" indicates few or no clouds below 12,000 feet
with no significant weather and/or obstructions to visibility.
 TC=TEMPERATURE CELSIUS

 * =Non NWS site. Station does not report precipitation (e.g. rain,
    snow, etc.), thunder, or fog.

DCZ001-MDZ009-015-VAZ040>042-051-053>054-200000-
WASHINGTON METRO

CITY           SKY/WX    TMP DP  RH WIND       PRES   REMARKS
WASHINGTON NAT PTCLDY    80  67  64 N16       29.90S
DULLES         PTCLDY    78  67  68 N8        29.91F
ANDREWS AFB    CLEAR     78  65  64 N10       29.89S
FT BELVOIR     CLEAR     79  65  62 NW5       29.90S
QUANTICO       CLEAR     79  67  66 N6        29.90F
COLLEGE PARK*  CLEAR     77  65  67 NW3       29.90S
LEESBURG*      CLEAR     79  70  73 N3        29.93S
MANASSAS*      CLEAR     77  67  71 NW7       29.92R
GAITHERSBURG*  CLEAR     74  66  76 CALM      29.94S

$$

MDZ006>007-011-014-200000-
BALTIMORE METRO

CITY           SKY/WX    TMP DP  RH WIND       PRES   REMARKS
BWI AIRPORT    PTCLDY    77  67  71 NW7       29.89S
MD SCIENCE CTR   N/A     81  67  62 MISG      29.89S
MARTIN STATE   MOCLDY    81  70  69 NW6       29.87F
ANNAPOLIS      CLOUDY    82  69  64 N8        29.88S
FORT MEADE*    CLEAR     75  64  69 NW5       29.92S

$$

MDZ012-015-019>023-200000-
MARYLAND EASTERN SHORE

CITY           SKY/WX    TMP DP  RH WIND       PRES   REMARKS
OCEAN CITY     LGT RAIN N/A N/A N/A N21G32    29.81S
SALISBURY      CLOUDY    70  69  97 N12       29.84S
CAMBRIDGE*     CLOUDY    72  70  94 N7        29.87S
EASTON*        LGT RAIN  73  70  88 NW5       29.91S

$$

MDZ017>025-200000-
SOUTHERN MARYLAND

CITY           SKY/WX    TMP DP  RH WIND       PRES   REMARKS
PATUXENT RIVER MOCLDY    72  71  97 E9        29.88S
ST INIGOES     CLOUDY    72  70  93 NE7       29.87S
LEONARDTOWN*   CLOUDY    75  66  73 CALM      29.89S

$$

MDZ003>005-200000-
NORTH CENTRAL MARYLAND

CITY           SKY/WX    TMP DP  RH WIND       PRES   REMARKS
FREDERICK*     CLEAR     79  64  61 NE5       29.95F
HAGERSTOWN APT CLEAR     78  64  61 NE7       29.94F
WESTMINSTER*   CLEAR     77  66  69 N5        29.94F

$$

MDZ501>502-200000-
WESTERN MARYLAND

CITY           SKY/WX    TMP DP  RH WIND       PRES   REMARKS
OAKLAND*       CLEAR     68  59  73 CALM      30.03S
CUMBERLAND*    CLEAR     81  59  47 CALM      29.98F

$$

VAZ025>031-200000-
SHENANDOAH VALLEY

CITY           SKY/WX    TMP DP  RH WIND       PRES   REMARKS
WINCHESTER*    CLEAR     73  63  68 CALM      29.95S
FRONT ROYAL*   CLEAR     77  64  65 E3        29.93S
LURAY*         CLEAR     77  63  61 N3        29.95R
NEW MARKET*    CLEAR     76  62  62 CALM      29.93S
STAUNTON*      CLEAR     76  62  61 CALM      29.97S
WAYNESBORO*    CLEAR     75  65  70 CALM      29.97F

$$

WVZ021-048>050-054>055-200000-
EASTERN WEST VIRGINIA PANHANDLE

CITY           SKY/WX    TMP DP  RH WIND       PRES   REMARKS
MARTINSBURG    CLEAR     79  62  56 N3        29.93F
PETERSBURG*    CLEAR     76  70  80 NW3       29.95S HAZE

$$

VAZ036>039-050-200000-
CENTRAL FOOTHILLS

CITY           SKY/WX    TMP DP  RH WIND       PRES   REMARKS
CHARLOTTESVILL CLEAR     80  65  59 E5        29.93R
CULPEPER*      CLEAR     77  67  70 CALM      29.93S
ORANGE*        CLEAR     75  63  64 CALM      29.93S
GORDONSVILLE*  CLEAR     74  67  77 CALM      29.92S
WARRENTON*     CLEAR     76  63  62 NW3       29.92R

$$

VAZ055>057-200000-
NORTH AND CENTRAL PIEDMONT

CITY           SKY/WX    TMP DP  RH WIND       PRES   REMARKS
FREDERICKSBRG* CLEAR     79  67  67 NW5       29.89S
STAFFORD*      CLEAR     74  69  83 NW3       29.94S

$$

NCZ024-NYZ072-PAZ021-071-VAZ022-071-200000-
OTHER REGIONAL OBSERVATIONS

CITY           SKY/WX    TMP DP  RH WIND       PRES   REMARKS
NEW YORK CITY  CLOUDY    72  65  78 NE14G24   29.92S
PHILADELPHIA   LGT RAIN  71  67  87 NE10G20   29.87F FOG
PITTSBURGH     PTCLDY    79  61  53 E5        29.96S
ROANOKE        PTCLDY    80  64  58 CALM      29.97S
RICHMOND       PTCLDY    78  65  63 N7        29.89F
RALEIGH        PTCLDY    81  61  50 N3        29.93R

$$

ANZ530>537-200000-
MARINE OBSERVATIONS

STATION/POSITION TIME  TEMP    WIND        PRES
                       AIR SEA DIR/SP/G
                 (UTC) (F)     (DEG/KT/KT) (MB)
THOMAS PT LIGHT  2300   77 75   10/  8/  8   N/A
BALT KEY BRIDGE  2242   81     340/ 14/ 17 1011.6F
COVE POINT       2242   72      80/ 14/ 18 1012.5R
LEWISETTA        2242   73 76   30/  6/ 11 1011.6R
SOLOMONS ISLAND  2242   77 76   20/  8/ 10 1011.2S
PINEY POINT      2242           60/  3/  4   N/A

$$





USA.gov is the U.S. government's official web portal to all federal, state and local government web resources and services.